Regional Weather Roundup
Issued by NWS

Home | Current Version | Previous Version | Text Only | Print | Product List | Glossary On
Versions: 1 2 3 4 5 6 7 8 9 10 11 12 13 14 15 16 17 18 19 20 21 22 23 24 25 26 27
000
ASUS45 KBOU 191706
RWRCO

WEATHER ROUNDUP FOR COLORADO
NATIONAL WEATHER SERVICE DENVER/BOULDER CO
1100 AM MDT SAT APR 19 2014

NOTE: "FAIR" INDICATES FEW OR NO CLOUDS BELOW 12000 FEET WITH NO
SIGNIFICANT WEATHER AND/OR OBSTRUCTIONS TO VISIBILITY.

COZ001>005-013-030-031-191800-
...NORTHWEST COLORADO...

CITY           SKY/WX    TMP DP  RH WIND       PRES   REMARKS
CRAIG          CLOUDY    55  36  48 S10       30.11R
HAYDEN         CLOUDY    54  34  47 SE5       30.14S
MEEKER         LGT RAIN  54  41  61 SW16      30.13R
MOUNT WERNER   CLOUDY    39  27  60 CALM      30.28R
STEAMBOAT SPGS CLOUDY    53  29  39 CALM      30.13S
WALDEN         CLOUDY    50  28  43 SW10      30.16R
$$

COZ006>008-011-191800-
...WEST CENTRAL VALLEYS...

CITY           SKY/WX    TMP DP  RH WIND       PRES   REMARKS
GRAND JUNCTION LGT RAIN  52  48  86 W6        30.12S
MONTROSE       CLOUDY    55  42  61 N9        30.15R
EAGLE          PTSUNNY   55  34  44 CALM      30.14S
RIFLE          CLOUDY    58  41  53 W21       30.10S
DELTA          CLOUDY    58  43  57 NW5       30.13S
NUCLA            N/A     52  41  66 NE3       30.17F
$$

COZ017>023-064>068-191800-
...SOUTHWEST COLORADO...

CITY           SKY/WX    TMP DP  RH WIND       PRES   REMARKS
DURANGO        MOSUNNY   53  39  59 MISG      30.17S
CORTEZ         MOSUNNY   58  43  57 CALM      30.14F
PAGOSA SPRINGS PTSUNNY   51  35  55 SW3       30.21S THUNDER
TELLURIDE      CLOUDY    46  32  57 CALM      30.22S
WOLF CREEK PAS CLOUDY    30  30 100 S10       30.32S FOG     WCI  21
$$

COZ009-010-012-014-032>034-037-058>063-191800-
...CENTRAL COLORADO...

CITY           SKY/WX    TMP DP  RH WIND       PRES   REMARKS
ASPEN          PTSUNNY   52  32  46 NW6       30.14F
BUENA VISTA    MOSUNNY   54  31  41 E3        30.16F
COPPER MTN     FLURRIES  37  30  75 SE5       30.31S
BERTHOUD PASS  SNOW      27  18  69 SE10      30.33S VSB 1/4 WCI  17
COTTONWOOD PAS MOSUNNY   52  30  43 SE7       30.23S
GUNNISON       MOSUNNY   50  30  46 CALM      30.20F
KREMMLING      CLOUDY    50  30  46 CALM      30.17S
LEADVILLE      PTSUNNY   42  25  50 CALM      30.22S
MONARCH PASS   MOSUNNY   37  28  70 S14       30.41S
SALIDA         MOSUNNY   57  33  40 S16G24    30.22S
SUNLIGHT       CLOUDY    37  32  81 CALM      30.28R
WILKERSON PASS CLOUDY    37  27  65 E5        30.32R
$$

COZ069>075-191800-
...SAN LUIS VALLEY/SANGRE DE CRISTO MOUNTAINS...

CITY           SKY/WX    TMP DP  RH WIND       PRES   REMARKS
ALAMOSA        SUNNY     58  33  39 NW8       30.16F
LA VETA PASS   MOSUNNY   45  30  57 SW9G21    30.25S
SAGUACHE       MOSUNNY   55  34  44 SE3       30.18F
$$

COZ035-036-038>040-191800-
...NORTHERN COLORADO FRONT RANGE...

CITY           SKY/WX    TMP DP  RH WIND       PRES   REMARKS
DENVER INTL AP CLOUDY    59  35  40 NE7       30.09S
DMNS CITY PARK   N/A     60  34  38 E6G12     30.07S
AURORA         CLOUDY    59  34  38 NE6       30.08R
FRONT RANGE AP NOT AVBL
ERIE MUNI ARPT CLOUDY    59  36  42 E6        30.08S
BOULDER MUN AP CLOUDY    55  36  47 E7        30.09R
CENTENNIAL     CLOUDY    59  33  37 NE6       30.09R
BROOMFIELD     PTSUNNY   57  37  47 N7        30.10R
FORT COLLINS   CLOUDY    55  37  50 SE9       30.11R
LONGMONT       CLOUDY    60  37  43 E9        30.11R
$$

COZ041-046-047-076>085-087-088-191800-
...PIKES PEAK/PALMER DIVIDE AND SOUTHERN FOOTHILLS...

CITY           SKY/WX    TMP DP  RH WIND       PRES   REMARKS
COLO. SPRINGS  CLOUDY    66  31  27 N8        30.09S
A. F. ACADEMY  CLOUDY    61  29  29 VRB3      30.10S
ELLICOTT       NOT AVBL
FALCON         CLOUDY    58  29  32 NE12      30.13R
FORT CARSON    PTSUNNY   65  32  28 VRB6      30.06F
LIMON          CLOUDY    63  35  35 N17       30.06R
MONUMENT HILL  CLOUDY    55  30  38 E8        30.12S
TRINIDAD       SUNNY     69  32  25 N14       30.05R
$$

COZ042>045-048>051-090-091-191800-
...NORTHEAST COLORADO...

CITY           SKY/WX    TMP DP  RH WIND       PRES   REMARKS
GREELEY ARPT   CLOUDY    57  39  51 SE6       30.10R
AKRON          PTSUNNY   57  42  57 N14       30.05R
BURLINGTON     PTSUNNY   67  43  41 N18       30.00S
WRAY           PTSUNNY   61  44  52 N12G23    30.03R
STERLING       PTSUNNY   57  41  54 NE12      30.05R
HOLYOKE        PTSUNNY   61  41  48 NE21G28   30.03R
FORT MORGAN    PTSUNNY   56  39  52 NE9       30.08R
$$

COZ086-089-092>099-191800-
...SOUTHEAST COLORADO...

CITY           SKY/WX    TMP DP  RH WIND       PRES   REMARKS
PUEBLO         PTSUNNY   69  31  24 NE15G24   30.00S
LA JUNTA       MOSUNNY   70  33  25 NW5       29.97F
LAMAR          PTSUNNY   73  35  25 NW8       29.94F
SPRINGFIELD      N/A     71  40  32 SW14      30.00S
$$



USA.gov is the U.S. government's official web portal to all federal, state and local government web resources and services.